Terminal Aerodrome Forecast
Issued by NWS

Home | Current Version | Previous Version | Text Only | Print | Product List | Glossary On
Versions: 1 2 3 4 5 6 7 8 9 10 11 12 13 14 15 16 17 18 19 20 21 22 23 24 25 26 27 28 29 30
000
FTPA31 PHFO 210500
TAFLNY
TAF
PHNY 210540Z 2106/2206 04009KT P6SM FEW025
     FM212100 26005KT P6SM BKN025
     FM220300 05014KT P6SM SCT025 BKN040
      AMD NOT SKED=

USA.gov is the U.S. government's official web portal to all federal, state and local government web resources and services.